TimeMST,TemperatureF,Dew PointF,Humidity,Sea Level PressureIn,VisibilityMPH,Wind Direction,Wind SpeedMPH,Gust SpeedMPH,PrecipitationIn,Events,Conditions,WindDirDegrees,DateUTC
12:15 AM,19.4,14.0,80,29.94,0.8,SSW,12.7,-,N/A,,Overcast,200,2013-12-08 07:15:00
12:35 AM,19.4,15.8,86,29.93,1.0,SSW,13.8,-,N/A,,Overcast,210,2013-12-08 07:35:00
12:55 AM,19.4,15.8,86,29.93,1.0,SSW,12.7,-,N/A,,Overcast,210,2013-12-08 07:55:00
1:15 AM,19.4,15.8,86,29.92,1.0,SSW,12.7,-,N/A,,Overcast,210,2013-12-08 08:15:00
1:35 AM,19.4,15.8,86,29.91,1.2,SSW,10.4,-,N/A,,Overcast,210,2013-12-08 08:35:00
1:55 AM,21.2,15.8,80,29.91,2.5,SSW,11.5,-,N/A,,Overcast,210,2013-12-08 08:55:00
2:15 AM,21.2,15.8,80,29.91,2.0,SW,10.4,-,N/A,,Overcast,230,2013-12-08 09:15:00
2:35 AM,21.2,17.6,86,29.90,1.8,SW,9.2,-,N/A,,Overcast,220,2013-12-08 09:35:00
2:55 AM,21.2,17.6,86,29.90,1.8,SW,12.7,-,N/A,,Overcast,230,2013-12-08 09:55:00
3:15 AM,21.2,17.6,86,29.90,2.0,SW,12.7,16.1,N/A,,Overcast,220,2013-12-08 10:15:00
3:35 AM,21.2,17.6,86,29.90,2.0,SW,12.7,-,N/A,,Overcast,230,2013-12-08 10:35:00
3:55 AM,21.2,17.6,86,29.89,8.0,SW,13.8,-,N/A,,Overcast,220,2013-12-08 10:55:00
4:15 AM,21.2,17.6,86,29.88,7.0,SW,16.1,-,N/A,,Overcast,220,2013-12-08 11:15:00
4:35 AM,21.2,17.6,86,29.88,4.0,SW,15.0,-,N/A,,Overcast,220,2013-12-08 11:35:00
4:55 AM,21.2,17.6,86,29.88,5.0,SSW,12.7,-,N/A,,Overcast,210,2013-12-08 11:55:00
5:15 AM,21.2,17.6,86,29.88,5.0,SW,12.7,-,N/A,,Overcast,230,2013-12-08 12:15:00
5:35 AM,21.2,17.6,86,29.88,8.0,SW,11.5,-,N/A,,Overcast,220,2013-12-08 12:35:00
5:55 AM,21.2,17.6,86,29.88,5.0,SSW,12.7,-,N/A,,Overcast,210,2013-12-08 12:55:00
6:15 AM,21.2,17.6,86,29.88,5.0,SW,10.4,-,N/A,,Overcast,220,2013-12-08 13:15:00
6:35 AM,21.2,17.6,86,29.87,3.0,SSW,11.5,-,N/A,,Overcast,210,2013-12-08 13:35:00
6:55 AM,21.2,17.6,86,29.88,1.5,SW,8.1,-,N/A,,Overcast,220,2013-12-08 13:55:00
7:15 AM,21.2,17.6,86,29.88,1.0,SW,10.4,-,N/A,,Overcast,220,2013-12-08 14:15:00
7:35 AM,21.2,17.6,86,29.88,1.5,SW,9.2,-,N/A,,Overcast,230,2013-12-08 14:35:00
7:55 AM,21.2,17.6,86,29.88,0.5,SW,8.1,-,N/A,,Overcast,220,2013-12-08 14:55:00
8:15 AM,21.2,17.6,86,29.88,0.8,SW,8.1,-,N/A,,Overcast,230,2013-12-08 15:15:00
8:35 AM,21.2,17.6,86,29.88,1.0,SW,9.2,-,N/A,,Overcast,230,2013-12-08 15:35:00
8:55 AM,24.8,19.4,80,29.89,7.0,SW,9.2,-,N/A,,Overcast,220,2013-12-08 15:55:00
9:15 AM,24.8,21.2,86,29.90,10.0,SSW,9.2,-,N/A,,Overcast,210,2013-12-08 16:15:00
9:35 AM,26.6,23.0,86,29.90,10.0,SW,10.4,-,N/A,,Scattered Clouds,220,2013-12-08 16:35:00
9:55 AM,28.4,24.8,86,29.90,10.0,SW,11.5,-,N/A,,Clear,220,2013-12-08 16:55:00
10:15 AM,28.4,26.6,93,29.90,10.0,WSW,12.7,-,N/A,,Clear,240,2013-12-08 17:15:00
10:35 AM,30.2,26.6,86,29.90,10.0,SW,13.8,-,N/A,,Clear,230,2013-12-08 17:35:00
10:55 AM,33.8,26.6,75,29.91,10.0,SW,13.8,-,N/A,,Clear,230,2013-12-08 17:55:00
11:15 AM,37.4,26.6,65,29.90,10.0,SW,15.0,-,N/A,,Clear,230,2013-12-08 18:15:00
11:35 AM,41.0,24.8,53,29.90,10.0,WSW,12.7,-,N/A,,Clear,240,2013-12-08 18:35:00
11:55 AM,42.8,23.0,46,29.89,10.0,WSW,19.6,24.2,N/A,,Clear,240,2013-12-08 18:55:00
12:15 PM,44.6,24.8,46,29.88,10.0,WSW,19.6,-,N/A,,Clear,240,2013-12-08 19:15:00
12:35 PM,46.4,24.8,43,29.88,10.0,WSW,20.7,-,N/A,,Clear,240,2013-12-08 19:35:00
12:55 PM,46.4,24.8,43,29.88,10.0,WSW,21.9,28.8,N/A,,Clear,240,2013-12-08 19:55:00
1:15 PM,46.4,24.8,43,29.89,10.0,West,20.7,27.6,N/A,,Clear,260,2013-12-08 20:15:00
1:35 PM,46.4,24.8,43,29.90,10.0,West,23.0,31.1,N/A,,Partly Cloudy,270,2013-12-08 20:35:00
1:55 PM,46.4,24.8,43,29.90,10.0,West,19.6,26.5,N/A,,Clear,260,2013-12-08 20:55:00
2:15 PM,46.4,26.6,46,29.90,10.0,West,15.0,-,N/A,,Clear,270,2013-12-08 21:15:00
2:35 PM,46.4,26.6,46,29.91,10.0,West,18.4,-,N/A,,Clear,280,2013-12-08 21:35:00
2:55 PM,44.6,24.8,46,29.91,10.0,West,18.4,21.9,N/A,,Clear,270,2013-12-08 21:55:00
3:15 PM,44.6,24.8,46,29.92,10.0,West,13.8,-,N/A,,Clear,280,2013-12-08 22:15:00
3:35 PM,44.6,24.8,46,29.93,10.0,West,11.5,-,N/A,,Scattered Clouds,280,2013-12-08 22:35:00
3:55 PM,42.8,24.8,49,29.93,10.0,West,17.3,21.9,N/A,,Partly Cloudy,280,2013-12-08 22:55:00
4:15 PM,41.0,24.8,53,29.94,10.0,WNW,11.5,-,N/A,,Clear,300,2013-12-08 23:15:00
4:35 PM,39.2,21.2,49,29.94,10.0,WNW,8.1,-,N/A,,Clear,300,2013-12-08 23:35:00
4:55 PM,35.6,21.2,56,29.95,10.0,WNW,3.5,-,N/A,,Clear,300,2013-12-08 23:55:00
5:15 PM,32.0,17.6,55,29.94,10.0,West,4.6,-,N/A,,Clear,280,2013-12-09 00:15:00
5:35 PM,30.2,19.4,64,29.95,10.0,West,5.8,-,N/A,,Clear,260,2013-12-09 00:35:00
5:55 PM,33.8,19.4,56,29.96,10.0,West,8.1,-,N/A,,Clear,270,2013-12-09 00:55:00
6:15 PM,33.8,19.4,56,29.97,10.0,West,8.1,-,N/A,,Clear,280,2013-12-09 01:15:00
6:35 PM,30.2,17.6,60,29.98,10.0,West,5.8,-,N/A,,Clear,270,2013-12-09 01:35:00
6:55 PM,28.4,17.6,64,29.98,10.0,WSW,3.5,-,N/A,,Clear,250,2013-12-09 01:55:00
7:15 PM,28.4,15.8,59,29.99,10.0,West,3.5,-,N/A,,Clear,280,2013-12-09 02:15:00
7:35 PM,26.6,15.8,64,30.00,10.0,WNW,6.9,-,N/A,,Clear,300,2013-12-09 02:35:00
7:55 PM,26.6,15.8,64,30.01,10.0,WNW,4.6,-,N/A,,Clear,290,2013-12-09 02:55:00
8:15 PM,24.8,14.0,64,30.01,10.0,West,5.8,-,N/A,,Clear,270,2013-12-09 03:15:00
8:35 PM,24.8,14.0,64,30.00,10.0,WNW,8.1,-,N/A,,Clear,300,2013-12-09 03:35:00
8:55 PM,26.6,17.6,69,29.99,10.0,WNW,8.1,-,N/A,,Clear,300,2013-12-09 03:55:00
9:15 PM,28.4,17.6,64,29.98,10.0,NW,8.1,-,N/A,,Clear,310,2013-12-09 04:15:00
9:35 PM,28.4,15.8,59,29.98,10.0,NW,6.9,-,N/A,,Clear,320,2013-12-09 04:35:00
9:55 PM,26.6,15.8,64,29.99,10.0,NW,8.1,-,N/A,,Clear,320,2013-12-09 04:55:00
10:15 PM,24.8,15.8,69,29.99,10.0,NW,6.9,-,N/A,,Clear,310,2013-12-09 05:15:00
10:35 PM,26.6,15.8,64,30.01,10.0,North,8.1,-,N/A,,Clear,360,2013-12-09 05:35:00
10:55 PM,23.0,14.0,68,30.01,10.0,NNE,11.5,-,N/A,,Clear,30,2013-12-09 05:55:00
11:15 PM,23.0,12.2,63,30.03,10.0,NE,13.8,-,N/A,,Clear,40,2013-12-09 06:15:00
11:35 PM,21.2,12.2,68,30.02,10.0,NE,12.7,-,N/A,,Clear,40,2013-12-09 06:35:00
11:55 PM,21.2,12.2,68,30.03,10.0,NE,11.5,-,N/A,,Clear,40,2013-12-09 06:55:00